Location: Unspecified
(0.0000°N, 0.0000°E)
Time: 19:17:43
(UTC+00:00)

Vanguard 2 - Pass Details

Date: 14 December 2017
Orbit: 553 x 2940 km, 32.9° (Epoch: 18 January)

Event Time Altitude Azimuth Distance (km) Brightness Sun altitude
Rises 08:22:39 0° 222° (SW) 6,633 12.2 33.6°
Reaches altitude 10° 08:27:47 10° 213° (SSW) 5,736 12.0 34.7°
Maximum altitude 08:43:14 35° 154° (SSE) 3,912 12.5 38.1°
Drops below altitude 10° 08:56:10 10° 94° (E) 4,871 12.5 40.8°
Sets 09:00:00 0° 85° (E) 5,569 12.5 41.7°
